Location: Truman State University Observatory
(40.1787°N, 92.6006°W)
Time: 20:06:21
(UTC-06:00)

Hubble Space Telescope - Visible Passes

Search period start: 23 February 2018 00:00
Search period end: 05 March 2018 00:00
Orbit: 537 x 541 km, 28.5° (Epoch: 23 February)

Date Brightness Start Highest point End Pass type
(mag) Time Alt. Az. Time Alt. Az. Time Alt. Az.
23 Feb 3.0 05:48:35 10° SW 05:51:08 16° S 05:53:43 10° SE visible
24 Feb 2.9 05:38:36 11° SW 05:40:45 16° S 05:43:16 10° SE visible
25 Feb 2.9 05:28:54 13° SSW 05:30:21 15° S 05:32:46 10° SSE visible
26 Feb 2.9 05:19:12 14° SSW 05:19:57 14° S 05:22:10 10° SSE visible
27 Feb 3.0 05:09:32 13° SSW 05:09:33 13° S 05:11:28 10° SSE visible
28 Feb 3.2 04:59:54 11° S 04:59:54 11° S 05:00:35 10° S visible
